User: anonymous   Login
Location: ???????
(54.9996°N, 37.9529°E)
Time: 15:10:49
(UTC+00:00)
Language:

Cosmos 2297 - Orbit

View from above orbital plane
View from above orbital plane
View from above satellite
View from above satellite

Ground track
Ground track

The orbit data is extracted from the following two-line orbital elements,

1 23404U 94077A   24174.52059672  .00000139  00000-0  98582-4 0  9993
2 23404  71.0160 328.5964 0016831 223.3195 136.6605 14.13744903526164
Epoch (UTC): 22 June 2024 12:29:39
Eccentricity: 0.0016831
inclination: 71.0160°
perigee height: 834 km
apogee height: 859 km
right ascension of ascending node: 328.5964°
argument of perigee: 223.3195°
revolutions per day: 14.13744903
mean anomaly at epoch: 136.6605°
orbit number at epoch: 52616

The dashed part of the orbit path shows where the satellite is in the earth's shadow,  

DLR